Wenatchee, WA

7:44 PM PDT on April 25, 2017 (GMT -0700)
Pangborn Memorial

Weather History for KEAT - September, 2014

Change the Weather History Date:

Tuesday, September 23, 2014

  Actual Average Record
Temperature  
Mean Temperature 65 °F 55 °F  
Max Temperature 74 °F 70 °F 90 °F (1974)
Min Temperature 56 °F 40 °F 35 °F (2015)
Degree Days  
Heating Degree Days 0 10  
Month to date heating degree days 120 161  
Since 1 July heating degree days 147 272  
Cooling Degree Days 0 0  
Month to date cooling degree days 11 14  
Year to date cooling degree days 408 247  
Growing Degree Days 16 (Base 50)    
Moisture  
Dew Point 51 °F    
Average Humidity 62    
Maximum Humidity 81    
Minimum Humidity 42    
Precipitation  
Precipitation 0.01 in 0.02 in 0.30 in (1977)
Month to date precipitation 0.19 0.47  
Year to date precipitation 11.95 10.89  
Snow  
Snow 0.00 in 0.00 in - ()
Month to date snowfall 0.0 0.0  
Since 1 July snowfall 0.0 0.0  
Since 1 September snowfall 0.0 0.0  
Snow Depth 0.00 in    
Sea Level Pressure  
Sea Level Pressure 29.84 in    
Wind  
Wind Speed 5 mph (WNW)    
Max Wind Speed 10 mph    
Max Gust Speed -    
Visibility 10 miles    
Events Rain    
T = Trace of Precipitation, MM = Missing Value Source: NWS Daily Summary

Daily Weather History Graph

Daily Weather History Graph

Search for Another Location

Airport or City:

Trip Planner

Search our weather history database for the weather conditions in past years. The results will help you decide how hot, cold, wet, or windy it might be!

Date:

Astronomy

Sep. 23, 2014 Rise Set
Actual Time 6:49 AM PDT 6:56 PM PDT
Civil Twilight 6:18 AM PDT 7:26 PM PDT
Nautical Twilight 5:42 AM PDT 8:02 PM PDT
Astronomical Twilight 5:05 AM PDT 8:39 PM PDT
Moon 6:17 AM PDT (9/23) 6:36 PM PDT (9/23)
Length of Visible Light 13h 08m
Length of Day
12h 07m
Waning Crescent, 0% of the Moon is Illuminated
Sep 23
Waning Crescent
Sep 23
New
Oct 1
First Quarter
Oct 8
Full
Oct 15
Last Quarter

Hourly Weather History & Observations

Time (PDT) Temp. Dew Point Humidity Pressure Visibility Wind Dir Wind Speed Gust Speed Precip Events Conditions
12:55 AM 70.0 °F 46.0 °F 42% 29.86 in 10.0 mi WNW 8.1 mph - N/A   Clear
1:55 AM 64.9 °F 48.0 °F 54% 29.86 in 10.0 mi WSW 4.6 mph - N/A   Clear
2:55 AM 66.0 °F 46.9 °F 50% 29.86 in 10.0 mi West 4.6 mph - N/A   Partly Cloudy
3:55 AM 64.9 °F 46.9 °F 52% 29.84 in 10.0 mi West 6.9 mph - N/A   Clear
4:55 AM 66.0 °F 46.9 °F 50% 29.85 in 10.0 mi WNW 10.4 mph - N/A   Partly Cloudy
5:55 AM 63.0 °F 48.0 °F 58% 29.85 in 10.0 mi South 3.5 mph - N/A   Clear
6:55 AM 62.1 °F 48.0 °F 60% 29.84 in 10.0 mi Calm Calm - N/A   Mostly Cloudy
7:55 AM 64.0 °F 48.0 °F 56% 29.86 in 10.0 mi North 3.5 mph - N/A   Scattered Clouds
8:55 AM 63.0 °F 48.0 °F 58% 29.86 in 10.0 mi West 4.6 mph - N/A   Clear
9:55 AM 66.0 °F 48.0 °F 52% 29.86 in 10.0 mi Calm Calm - N/A   Partly Cloudy
10:55 AM 66.0 °F 48.0 °F 52% 29.86 in 10.0 mi NW 4.6 mph - N/A   Mostly Cloudy
11:55 AM 66.0 °F 52.0 °F 60% 29.86 in 8.0 mi NNE 4.6 mph - 0.01 in Rain Light Rain
12:55 PM 66.0 °F 53.1 °F 63% 29.87 in 10.0 mi West 5.8 mph - 0.00 in   Mostly Cloudy
1:55 PM 66.9 °F 51.1 °F 57% 29.86 in 10.0 mi NW 4.6 mph - N/A   Mostly Cloudy
2:55 PM 66.0 °F 53.1 °F 63% 29.84 in 10.0 mi WNW 5.8 mph - N/A   Overcast
3:55 PM 68.0 °F 53.1 °F 59% 29.83 in 10.0 mi SE 3.5 mph - N/A   Overcast
4:55 PM 66.9 °F 55.0 °F 66% 29.83 in 10.0 mi Calm Calm - N/A   Overcast
5:55 PM 66.9 °F 54.0 °F 63% 29.82 in 10.0 mi Calm Calm - N/A   Overcast
6:55 PM 66.0 °F 57.0 °F 73% 29.82 in 10.0 mi North 3.5 mph - 0.00 in Rain Light Rain
7:55 PM 64.0 °F 57.0 °F 78% 29.83 in 10.0 mi Calm Calm - 0.01 in Rain Light Rain
8:55 PM 64.0 °F 57.9 °F 80% 29.82 in 10.0 mi WNW 3.5 mph - 0.00 in Rain Light Rain
9:55 PM 63.0 °F 57.0 °F 81% 29.80 in 9.0 mi Calm Calm - 0.00 in   Overcast
10:55 PM 63.0 °F 57.0 °F 81% 29.79 in 10.0 mi NE 4.6 mph - N/A   Overcast
11:55 PM 64.0 °F 55.9 °F 75% 29.78 in 10.0 mi Calm Calm - N/A   Overcast